MUOS-3

Last updated on Tue Sep 22 2026 00:03:13 GMT+0000 (Coordinated Universal Time)

1 40374U 15002A 26264.27205638 -.00000129 00000+0 00000+0 0 9990 2 40374 4.7054 43.8041 0058241 178.9736 219.8592 1.00273172 42556
UTC large
Height (km)
Speed (km/s)
/
Latitude / Longitude
Inclination (degrees)
Orbital Period (minutes)
Azimuth
Elevation
Range (km)
Doppler Factor

Next 0 passes for location: London (51.5072 / 0.1276)

No passes found over London.
MUOS-3